[[{"header":{"parameterUnit":"m.s-1","parameterCategory":1,"la1":30.2991,"la2":30.254,"lo1":-89.0895,"lo2":-89.0444,"dy":0.0017,"dx":0.0017,"nx":28,"ny":28,"refTime":"2023-09-11T09:00:00:Z","depth":0,"parameterNumber":2,"parameterNumberName":"U-component_of_WINDS"},"data":[0,0,0,0,0,0,0,0,0,0,0,0,0,0,0,0,0,0,0,0,0,0,0,0,0,0,0,0,0,0,0,0,0,0,0,0,0,0,0,0,0,0,0,0,0,0,0,0,0,0,0,0,0,0,0,0,0,0,1.372,1.372,0,1.3794,1.3794,1.3795,1.3821,1.382,1.382,1.382,1.3893,1.3895,1.3898,0,0,0,0,0,0,0,0,0,0,0,0,0,1.3596,1.3598,1.372,1.372,1.3721,1.3793,1.3794,1.3795,1.3821,1.382,1.382,1.382,1.3893,1.3895,1.3898,0,0,0,0,0,0,0,0,0,0,0,0,0,1.3658,1.3599,1.3719,1.3743,1.3746,1.3793,1.3794,1.3796,1.3821,1.382,1.382,1.382,1.3892,1.3895,1.3898,1.3927,0,0,1.3908,1.391,0,0,0,0,0,0,0,0,1.3654,1.3662,1.3738,1.3741,1.3744,1.3798,1.3778,1.384,1.3821,1.3792,1.382,1.3819,1.3862,1.3867,1.3882,1.3931,1.3934,1.3909,1.3911,1.3912,1.3913,0,0,0,0,0,0,0,1.365,1.3659,1.3749,1.3739,1.3743,1.3748,1.3757,1.379,1.3828,1.3795,1.3797,1.3805,1.3863,1.3879,1.3884,1.3935,1.3909,1.3911,1.3914,1.3915,1.4008,1.4009,0,0,0,0,0,0,1.3642,1.3656,1.3746,1.3751,1.3698,1.3751,1.376,1.3781,1.3828,1.3835,1.3805,1.3806,1.3873,1.388,1.3887,1.3922,1.3912,1.3915,1.3917,1.4008,1.4009,1.4009,0,0,0,0,0,0,1.364,1.365,1.3743,1.3704,1.3716,1.3753,1.3776,1.3783,1.3798,1.3836,1.3843,1.3815,1.3873,1.3882,1.3917,1.3925,1.3917,1.392,1.4007,1.4008,1.4009,1.3995,0,0,0,0,0,0,1.3636,1.3649,1.3662,1.3704,1.3718,1.3773,1.3777,1.3784,1.3804,1.3806,1.3847,1.3853,1.3874,1.3911,1.392,1.393,1.3922,1.4007,1.4008,1.4009,1.3995,1.3995,1.3995,0,0,0,0,0,1.3631,1.3655,1.3662,1.3673,1.3735,1.3774,1.3782,1.3806,1.3805,1.3817,1.3841,1.3852,1.3923,1.3915,1.3924,1.3936,1.4006,1.4007,1.4009,1.3995,1.3995,1.3995,0,0,0,0,0,0,1.3612,1.3661,1.367,1.3707,1.3736,1.3778,1.3794,1.3806,1.3835,1.3835,1.3863,1.3872,1.3904,1.3923,1.3913,1.3965,1.3965,1.3968,1.3951,1.3952,1.3952,1.3947,1.3925,0,0,0,0,0,1.3612,1.3641,1.3681,1.3711,1.3725,1.3757,1.3775,1.3791,1.3821,1.3833,1.386,1.3889,1.3917,1.3936,1.3964,1.3997,1.4006,1.401,1.401,1.401,1.4012,1.4029,1.4031,1.4013,1.4013,1.4013,0,0,1.3613,1.3643,1.3659,1.3708,1.3732,1.3759,1.3767,1.3797,1.3817,1.3838,1.3872,1.3892,1.3926,1.3959,1.3975,1.3976,1.4019,1.4011,1.4011,1.4013,1.4031,1.4032,1.4034,1.4013,1.4013,1.4013,0,0,1.3628,1.3654,1.3681,1.3705,1.3741,1.3762,1.3768,1.3808,1.3822,1.3857,1.3873,1.3896,1.3946,1.3969,1.3987,1.4008,1.4018,1.4016,1.4018,1.4034,1.4035,1.4037,1.4043,1.4045,1.4018,1.4018,1.4018,0,1.3624,1.3667,1.3693,1.3721,1.3741,1.3761,1.3787,1.3809,1.3852,1.3865,1.3866,1.3927,1.3951,1.3989,1.3994,1.4008,1.4015,1.4012,1.4033,1.4035,1.4037,1.4043,1.4045,1.4018,1.4018,1.4018,1.4018,0,1.366,1.3689,1.3706,1.3748,1.377,1.3796,1.3825,1.3843,1.3856,1.3877,1.391,1.394,1.3974,1.3984,1.3998,1.4024,1.4023,1.4028,1.4029,1.4037,1.4044,1.4047,1.4017,1.4017,1.4017,1.4017,0,0,1.3666,1.372,1.3726,1.3744,1.3785,1.3808,1.3834,1.3868,1.3883,1.3912,1.3934,1.3974,1.3979,1.3999,1.4015,1.4029,1.4042,1.4032,1.4033,1.4032,1.4071,1.4066,1.4069,1.4049,1.405,1.405,1.4068,0,1.3685,1.3735,1.3758,1.3797,1.3824,1.3842,1.3865,1.3892,1.3911,1.3935,1.3956,1.3983,1.3988,1.4,1.4015,1.4037,1.405,1.4036,1.4069,1.407,1.406,1.4073,1.4069,1.4084,1.4071,1.4071,1.4071,0,1.3715,1.3744,1.3786,1.3822,1.3834,1.3854,1.3886,1.3909,1.3939,1.3952,1.3973,1.3988,1.4015,1.4014,1.4051,1.4041,1.4055,1.4068,1.4069,1.4073,1.4071,1.4076,1.409,1.4092,1.4076,1.4075,1.4075,0,1.3714,1.3763,1.3794,1.3809,1.3852,1.3866,1.3884,1.3914,1.3932,1.3959,1.3971,1.4001,1.4017,1.4039,1.4061,1.4058,1.4095,1.4096,1.4105,1.4105,1.4112,1.4111,1.4128,1.4122,1.4122,1.4122,1.4122,0,1.3733,1.3757,1.3794,1.3813,1.384,1.3865,1.3891,1.391,1.3936,1.3958,1.3976,1.3996,1.4024,1.4047,1.4064,1.4091,1.4098,1.4108,1.4113,1.4107,1.4105,1.4117,1.4116,1.4123,1.4123,1.4122,1.4122,0,1.3736,1.3762,1.3796,1.3834,1.3844,1.3862,1.3894,1.3912,1.3931,1.3959,1.3966,1.3996,1.4024,1.4048,1.4085,1.4097,1.4124,1.413,1.4114,1.4117,1.4124,1.4123,1.4148,1.4152,1.4144,1.4144,1.4144,0,1.3746,1.3766,1.3805,1.3821,1.3839,1.3865,1.3884,1.3908,1.3927,1.3961,1.3975,1.4004,1.4029,1.4072,1.4097,1.4124,1.413,1.4137,1.4134,1.4127,1.4129,1.4128,1.4129,1.4137,1.4137,1.4137,1.4137,0,1.3762,1.3773,1.3799,1.3829,1.3851,1.3876,1.3901,1.3913,1.3942,1.3961,1.399,1.4009,1.4047,1.4075,1.4105,1.4123,1.4134,1.4137,1.4141,1.4135,1.4125,1.4129,1.4114,1.4137,1.4137,1.4137,1.4137,1.4137,1.3768,1.3785,1.3815,1.3844,1.3865,1.3888,1.3907,1.3928,1.3953,1.3985,1.3998,1.4027,1.4055,1.4096,1.4114,1.4136,1.4138,1.4143,1.4145,1.4145,1.4144,1.4121,1.4142,1.4142,1.4142,1.4142,1.4142,0,1.3783,1.3803,1.3829,1.3864,1.3885,1.3894,1.3922,1.394,1.3965,1.399,1.4014,1.4046,1.4073,1.41,1.4128,1.4141,1.4146,1.4147,1.4146,1.415,1.4141,1.4135,1.4142,1.4142,1.4142,1.4142,1.4142,1.4142,1.3794,1.3823,1.3837,1.3877,1.3896,1.3926,1.3941,1.3961,1.3981,1.4017,1.4039,1.4056,1.4081,1.4111,1.4136,1.4143,1.4152,1.4151,1.4159,1.4151,1.4151,1.415,1.4145,1.4153,1.4153,1.4166,1.4166,1.4166]},{"header":{"parameterUnit":"m.s-1","parameterCategory":1,"la1":30.2991,"la2":30.254,"lo1":-89.0895,"lo2":-89.0444,"dy":0.0017,"dx":0.0017,"nx":28,"ny":28,"refTime":"2023-09-11T09:00:00:Z","depth":0,"parameterNumber":3,"parameterNumberName":"V-component_of_WINDS"},"data":[0,0,0,0,0,0,0,0,0,0,0,0,0,0,0,0,0,0,0,0,0,0,0,0,0,0,0,0,0,0,0,0,0,0,0,0,0,0,0,0,0,0,0,0,0,0,0,0,0,0,0,0,0,0,0,0,0,0,1.234,1.2339,0,1.2199,1.2197,1.2195,1.209,1.2089,1.2088,1.2087,1.1937,1.1934,1.1931,0,0,0,0,0,0,0,0,0,0,0,0,0,1.2513,1.2511,1.234,1.2338,1.2337,1.2199,1.2197,1.2195,1.209,1.2089,1.2087,1.2086,1.1938,1.1934,1.1931,0,0,0,0,0,0,0,0,0,0,0,0,0,1.2412,1.251,1.2341,1.2268,1.226,1.2199,1.2197,1.2194,1.209,1.2089,1.2087,1.2086,1.1939,1.1935,1.193,1.1929,0,0,1.1916,1.1914,0,0,0,0,0,0,0,0,1.2418,1.2405,1.228,1.2273,1.2264,1.216,1.2203,1.2105,1.209,1.2154,1.2087,1.2085,1.2012,1.2001,1.1978,1.1922,1.1915,1.1915,1.1912,1.191,1.1909,0,0,0,0,0,0,0,1.2425,1.2411,1.2284,1.2278,1.2268,1.224,1.2224,1.2184,1.2093,1.2149,1.2141,1.2126,1.2007,1.1982,1.1973,1.1913,1.1915,1.1911,1.1908,1.1906,1.1847,1.1848,0,0,0,0,0,0,1.2444,1.2417,1.2288,1.228,1.2339,1.2238,1.222,1.2195,1.2093,1.2076,1.2127,1.2121,1.1991,1.1979,1.1968,1.1958,1.191,1.1906,1.1903,1.1846,1.1847,1.1849,0,0,0,0,0,0,1.2448,1.2433,1.2294,1.2346,1.2326,1.2237,1.2209,1.2193,1.2168,1.2076,1.2059,1.2119,1.199,1.1974,1.1939,1.1952,1.1904,1.19,1.1844,1.1846,1.1848,1.1941,0,0,0,0,0,0,1.2454,1.2436,1.2436,1.2347,1.2324,1.227,1.221,1.2191,1.2161,1.2152,1.2064,1.2048,1.1987,1.1947,1.1935,1.1944,1.1896,1.1843,1.1845,1.1847,1.1937,1.1946,1.1954,0,0,0,0,0,1.246,1.2467,1.2436,1.2421,1.2323,1.2271,1.2258,1.2189,1.2162,1.2161,1.2101,1.2051,1.1953,1.1944,1.1929,1.1938,1.1842,1.1845,1.1847,1.1933,1.1944,1.1954,0,0,0,0,0,0,1.2558,1.2454,1.2419,1.2398,1.2345,1.2254,1.225,1.2204,1.2155,1.2149,1.2064,1.2045,1.2018,1.1974,1.1967,1.193,1.189,1.1891,1.196,1.1971,1.1979,1.199,1.1892,0,0,0,0,0,1.2578,1.2546,1.2456,1.2446,1.2421,1.2341,1.2315,1.2267,1.2207,1.2184,1.2122,1.2065,1.202,1.1993,1.1947,1.193,1.1908,1.1928,1.1937,1.1944,1.1945,1.1931,1.1938,1.1858,1.1858,1.1858,0,0,1.2617,1.2556,1.2541,1.2464,1.2417,1.2384,1.2322,1.229,1.2265,1.2178,1.2142,1.2094,1.2024,1.1998,1.1983,1.196,1.1963,1.1948,1.1955,1.1951,1.1934,1.1942,1.1949,1.186,1.1859,1.1859,0,0,1.2672,1.2624,1.2609,1.2563,1.2493,1.2439,1.2436,1.2351,1.2317,1.2279,1.2213,1.218,1.2107,1.2059,1.2025,1.2061,1.2012,1.2048,1.2094,1.2081,1.2087,1.2092,1.2104,1.2109,1.2049,1.205,1.205,0,1.2729,1.2679,1.2607,1.2579,1.2547,1.2468,1.2452,1.241,1.2328,1.2306,1.2282,1.2187,1.2135,1.2095,1.2104,1.2079,1.2071,1.2058,1.2092,1.2097,1.21,1.211,1.2115,1.2054,1.2054,1.2053,1.2053,0,1.2752,1.2719,1.2715,1.2639,1.2606,1.2584,1.2507,1.2481,1.2435,1.2383,1.2345,1.2279,1.2218,1.2205,1.2159,1.2158,1.2146,1.2109,1.2066,1.2114,1.2122,1.2125,1.2061,1.206,1.2058,1.2057,0,0,1.2866,1.275,1.275,1.2714,1.263,1.2601,1.2575,1.2517,1.2496,1.2441,1.2416,1.2355,1.2319,1.2281,1.2229,1.2218,1.2248,1.218,1.2177,1.2195,1.2241,1.227,1.2275,1.2215,1.2216,1.2216,1.2246,0,1.2907,1.2857,1.2791,1.2763,1.2729,1.2653,1.263,1.2575,1.2525,1.2488,1.2432,1.239,1.2347,1.2323,1.2308,1.2248,1.2256,1.2245,1.2189,1.2188,1.2209,1.228,1.231,1.2342,1.2249,1.225,1.225,0,1.2948,1.2899,1.2869,1.2786,1.277,1.275,1.2691,1.2657,1.2592,1.2556,1.2513,1.2457,1.2423,1.2386,1.2337,1.233,1.2303,1.227,1.2269,1.2261,1.2222,1.2272,1.235,1.2355,1.2254,1.2254,1.2254,0,1.3033,1.2959,1.293,1.2902,1.2806,1.2794,1.2752,1.2686,1.2655,1.2602,1.2581,1.2524,1.2493,1.245,1.2379,1.2359,1.2337,1.2294,1.2305,1.2307,1.2303,1.2304,1.2378,1.2287,1.2287,1.2287,1.2287,0,1.3086,1.307,1.2967,1.295,1.2928,1.2851,1.2832,1.2783,1.2725,1.2695,1.2625,1.2598,1.2507,1.2468,1.2413,1.2379,1.2366,1.2335,1.232,1.2341,1.2345,1.2322,1.2317,1.2288,1.2288,1.2288,1.2288,0,1.3177,1.3108,1.3072,1.2984,1.2961,1.2949,1.2872,1.2851,1.2797,1.276,1.2747,1.2661,1.2612,1.2538,1.2466,1.2428,1.2404,1.238,1.2427,1.2418,1.2432,1.2432,1.2492,1.2496,1.2405,1.2406,1.2407,0,1.3215,1.3201,1.3111,1.3087,1.3049,1.3011,1.2978,1.2901,1.287,1.2794,1.2782,1.2728,1.2681,1.2605,1.2536,1.248,1.2454,1.2479,1.2445,1.2466,1.2453,1.2455,1.2452,1.2487,1.2488,1.249,1.2491,0,1.3289,1.3256,1.3213,1.3159,1.3123,1.3076,1.3025,1.3008,1.2919,1.2888,1.2838,1.2801,1.2728,1.2674,1.2609,1.2564,1.2512,1.2502,1.2501,1.2522,1.2549,1.2534,1.2448,1.2501,1.25,1.2499,1.2498,1.2498,1.3354,1.3338,1.3272,1.3226,1.318,1.3134,1.311,1.3053,1.301,1.2946,1.2902,1.2855,1.2787,1.2695,1.2652,1.2612,1.259,1.2589,1.2589,1.259,1.2597,1.2556,1.26,1.2599,1.2599,1.2599,1.2598,0,1.3424,1.3378,1.3337,1.3269,1.3233,1.3188,1.3129,1.3101,1.3061,1.3003,1.2959,1.29,1.2847,1.2774,1.2715,1.2697,1.2671,1.2684,1.2684,1.2674,1.2621,1.2627,1.2705,1.2705,1.2705,1.2705,1.2705,1.2705,1.3457,1.3426,1.3385,1.3329,1.3282,1.3236,1.3206,1.3163,1.3116,1.3055,1.3012,1.2964,1.2899,1.2835,1.2784,1.2764,1.2745,1.2765,1.2737,1.2688,1.2678,1.2669,1.2674,1.2762,1.2762,1.2794,1.2794,1.2794]}]]